Weather History for Wichita, KS

Change the Weather History Date:

Friday, July 12, 2013

  Actual Average Record
Temperature  
Mean Temperature 87 °F 81 °F  
Max Temperature 101 °F 92 °F 112 °F (1980)
Min Temperature 73 °F 70 °F 56 °F (1975)
Degree Days  
Heating Degree Days 0 0  
Month to date heating degree days 0 0  
Since 1 June heating degree days 3 6  
Since 1 July heating degree days 0 0  
Cooling Degree Days 22 16  
Month to date cooling degree days 201 187  
Year to date cooling degree days 741 652  
Since 1 June cooling degree days 603 516  
Growing Degree Days 36 (Base 50)    
Moisture  
Dew Point 67 °F    
Average Humidity 53    
Maximum Humidity 73    
Minimum Humidity 33    
Precipitation  
Precipitation 0.00 in 0.11 in 2.81 in (1949)
Month to date precipitation 0.18 1.46  
Year to date precipitation 16.03 18.52  
Snow  
Snow 0.00 in 0.00 in 0.00 in (2007)
Month to date snowfall 0.0 0.0  
Since 1 June snowfall 0.0 0.0  
Since 1 July snowfall 0.0 0.0  
Snow Depth 0.00 in    
Sea Level Pressure  
Sea Level Pressure 29.90 in    
Wind  
Wind Speed 12 mph (SSE)    
Max Wind Speed 24 mph    
Max Gust Speed 29 mph    
Visibility 10 miles    
Events      
T = Trace of Precipitation, MM = Missing Value Source: NWS Daily Summary

Daily Weather History Graph

Daily Weather History Graph

Search for Another Location

Airport:

Trip Planner

Search our weather history database for the weather conditions in past years. The results will help you decide how hot, cold, wet, or windy it might be!

Date:

Astronomy

Jul. 12, 2013 Rise Set
Actual Time 6:18 AM CDT 8:52 PM CDT
Civil Twilight 5:47 AM CDT 9:22 PM CDT
Nautical Twilight 5:09 AM CDT 10:00 PM CDT
Astronomical Twilight 4:27 AM CDT 10:42 PM CDT
Moon 10:30 AM CDT (7/12) 11:09 PM CDT (7/12)
Length of Visible Light 15h 34m
Length of Day
14h 33m
Waxing Crescent, 17% of the Moon is Illuminated
Jul 12
Waxing Crescent
Jul 15
First Quarter
Jul 22
Full
Jul 29
Last Quarter
Aug 6
New

Hourly Weather History & Observations

Time (CDT) Temp. Heat Index Dew Point Humidity Pressure Visibility Wind Dir Wind Speed Gust Speed Precip Events Conditions
12:53 AM 80.1 °F 81.7 °F 64.0 °F 58% 29.94 in 10.0 mi ESE 9.2 mph - N/A   Partly Cloudy
1:53 AM 78.1 °F - 64.0 °F 62% 29.93 in 10.0 mi ESE 9.2 mph - N/A   Partly Cloudy
2:53 AM 78.1 °F - 64.0 °F 62% 29.93 in 10.0 mi SSE 8.1 mph - N/A   Scattered Clouds
3:53 AM 75.9 °F - 64.0 °F 67% 29.92 in 10.0 mi SE 3.5 mph - N/A   Scattered Clouds
4:53 AM 75.9 °F - 64.0 °F 67% 29.91 in 10.0 mi East 8.1 mph - N/A   Scattered Clouds
5:53 AM 75.0 °F - 64.0 °F 69% 29.91 in 10.0 mi ESE 9.2 mph - N/A   Partly Cloudy
6:53 AM 73.9 °F - 64.0 °F 71% 29.93 in 10.0 mi ESE 6.9 mph - N/A   Scattered Clouds
7:53 AM 77.0 °F - 66.0 °F 69% 29.94 in 10.0 mi SSE 11.5 mph - N/A   Scattered Clouds
8:53 AM 82.4 °F 85.4 °F 68.0 °F 62% 29.94 in 10.0 mi SSE 10.4 mph - N/A   Scattered Clouds
9:53 AM 86.0 °F 90.1 °F 69.1 °F 57% 29.93 in 10.0 mi SSE 12.7 mph - N/A   Partly Cloudy
10:53 AM 91.4 °F 96.8 °F 69.8 °F 49% 29.93 in 10.0 mi SSE 10.4 mph - N/A   Scattered Clouds
11:53 AM 95.0 °F 99.5 °F 68.0 °F 41% 29.92 in 10.0 mi SSE 15.0 mph 20.7 mph N/A   Partly Cloudy
12:53 PM 98.1 °F 101.8 °F 66.0 °F 35% 29.91 in 10.0 mi South 15.0 mph 23.0 mph N/A   Scattered Clouds
1:53 PM 99.0 °F 103.5 °F 66.9 °F 35% 29.90 in 10.0 mi SSW 15.0 mph 20.7 mph N/A   Scattered Clouds
2:53 PM 99.0 °F 103.5 °F 66.9 °F 35% 29.88 in 10.0 mi SSE 13.8 mph 20.7 mph N/A   Scattered Clouds
3:53 PM 100.0 °F 104.2 °F 66.0 °F 33% 29.87 in 10.0 mi South 13.8 mph 19.6 mph N/A   Scattered Clouds
4:53 PM 99.0 °F 102.9 °F 66.0 °F 34% 29.86 in 10.0 mi SSE 15.0 mph 25.3 mph N/A   Scattered Clouds
5:53 PM 100.0 °F 104.2 °F 66.0 °F 33% 29.85 in 10.0 mi South 16.1 mph - N/A   Scattered Clouds
6:53 PM 97.0 °F 102.2 °F 68.0 °F 39% 29.85 in 10.0 mi SSE 17.3 mph 24.2 mph N/A   Scattered Clouds
7:53 PM 93.9 °F 97.5 °F 66.9 °F 41% 29.87 in 10.0 mi SE 13.8 mph - N/A   Scattered Clouds
8:53 PM 91.0 °F 95.2 °F 68.0 °F 47% 29.88 in 10.0 mi SSE 11.5 mph - N/A   Partly Cloudy
9:53 PM 89.1 °F 93.7 °F 69.1 °F 52% 29.89 in 10.0 mi SSE 11.5 mph - N/A   Partly Cloudy
10:53 PM 86.0 °F 90.7 °F 70.0 °F 59% 29.91 in 10.0 mi SSE 10.4 mph - N/A   Partly Cloudy
11:53 PM 84.9 °F 90.1 °F 71.1 °F 63% 29.91 in 10.0 mi SSE 10.4 mph - N/A   Clear